TimeEST,TemperatureF,Dew PointF,Humidity,Sea Level PressureIn,VisibilityMPH,Wind Direction,Wind SpeedMPH,Gust SpeedMPH,PrecipitationIn,Events,Conditions,WindDirDegrees,DateUTC
12:55 AM,25.7,15.1,64,30.19,10.0,Calm,Calm,-,N/A,,Mostly Cloudy,0,2013-01-21 05:55:00
1:55 AM,24.6,16.0,70,30.17,10.0,NW,3.5,-,N/A,,Scattered Clouds,320,2013-01-21 06:55:00
2:55 AM,22.6,14.5,71,30.19,10.0,West,4.6,-,N/A,,Scattered Clouds,280,2013-01-21 07:55:00
3:55 AM,22.6,14.2,70,30.19,10.0,West,3.5,-,N/A,,Clear,270,2013-01-21 08:55:00
4:55 AM,22.6,15.3,73,30.19,10.0,West,3.5,-,N/A,,Clear,260,2013-01-21 09:55:00
5:55 AM,22.8,15.6,74,30.19,10.0,West,6.9,-,N/A,,Scattered Clouds,270,2013-01-21 10:55:00
6:55 AM,24.3,16.3,72,30.19,10.0,West,9.2,-,N/A,,Overcast,260,2013-01-21 11:55:00
7:55 AM,22.6,16.2,76,30.21,10.0,WSW,6.9,-,N/A,,Scattered Clouds,250,2013-01-21 12:55:00
7:58 AM,23.0,15.8,74,30.21,10.0,WSW,8.1,-,N/A,,Mostly Cloudy,250,2013-01-21 12:58:00
8:46 AM,23.0,17.6,80,30.22,10.0,West,8.1,-,N/A,,Scattered Clouds,260,2013-01-21 13:46:00
8:55 AM,24.1,17.6,76,30.22,10.0,WSW,9.2,-,N/A,,Scattered Clouds,250,2013-01-21 13:55:00
9:08 AM,24.8,17.6,74,30.23,10.0,West,11.5,-,N/A,,Mostly Cloudy,270,2013-01-21 14:08:00
9:23 AM,24.8,15.8,69,30.23,10.0,West,12.7,18.4,N/A,,Scattered Clouds,280,2013-01-21 14:23:00
9:55 AM,25.3,16.2,68,30.24,10.0,West,16.1,-,N/A,,Scattered Clouds,260,2013-01-21 14:55:00
9:57 AM,24.8,15.8,69,30.24,10.0,West,11.5,20.7,N/A,,Mostly Cloudy,270,2013-01-21 14:57:00
10:35 AM,26.6,14.0,59,30.23,10.0,West,12.7,23.0,N/A,,Mostly Cloudy,260,2013-01-21 15:35:00
10:46 AM,26.6,14.0,59,30.23,10.0,WSW,15.0,23.0,N/A,,Mostly Cloudy,250,2013-01-21 15:46:00
10:52 AM,26.6,14.0,59,30.23,10.0,WSW,15.0,23.0,N/A,,Scattered Clouds,240,2013-01-21 15:52:00
10:55 AM,26.2,13.3,58,30.23,10.0,WSW,15.0,-,N/A,,Scattered Clouds,240,2013-01-21 15:55:00
11:55 AM,29.1,11.8,49,30.22,10.0,West,16.1,26.5,N/A,,Scattered Clouds,260,2013-01-21 16:55:00
12:55 PM,29.3,7.0,39,30.20,10.0,West,18.4,27.6,N/A,,Clear,260,2013-01-21 17:55:00
1:55 PM,29.8,2.3,31,30.18,10.0,WSW,20.7,25.3,N/A,,Clear,250,2013-01-21 18:55:00
2:55 PM,28.8,3.4,34,30.20,10.0,West,20.7,27.6,N/A,,Clear,260,2013-01-21 19:55:00
3:55 PM,28.0,2.5,34,30.22,10.0,West,16.1,-,N/A,,Clear,270,2013-01-21 20:55:00
4:55 PM,25.7,0.1,33,30.23,10.0,WNW,16.1,25.3,N/A,,Clear,290,2013-01-21 21:55:00
5:55 PM,22.6,1.4,40,30.25,10.0,West,17.3,25.3,N/A,,Clear,260,2013-01-21 22:55:00
6:55 PM,21.0,-0.0,40,30.26,10.0,West,13.8,-,N/A,,Partly Cloudy,270,2013-01-21 23:55:00
7:55 PM,20.7,0.3,41,30.28,10.0,West,12.7,19.6,N/A,,Overcast,280,2013-01-22 00:55:00
8:55 PM,19.6,0.3,43,30.29,10.0,WNW,11.5,-,N/A,,Overcast,290,2013-01-22 01:55:00
9:55 PM,19.2,-0.0,43,30.30,10.0,West,8.1,-,N/A,,Overcast,280,2013-01-22 02:55:00
10:55 PM,17.4,-0.8,45,30.31,10.0,NW,9.2,-,N/A,,Scattered Clouds,320,2013-01-22 03:55:00
11:55 PM,16.0,0.7,51,30.31,10.0,NW,8.1,-,N/A,,Clear,320,2013-01-22 04:55:00